Tracking 29892 objects as of 21-Nov-2024
HD Live streaming from Space Station
objects crossing your sky now

ATLAS 5 CENTAUR DEB

Track ATLAS 5 CENTAUR DEB now!


NORAD ID: 44007
Int'l Code: 2014-055BN
Perigee: 8,634.4 km
Apogee: 36,521.1 km
Inclination: 19.9 °
Period: 817.0 minutes
Semi major axis: 28948 km
RCS: Unknown
Launch date: September 17, 2014
Source: United States (US)
Launch site: AIR FORCE EASTERN TEST RANGE (AFETR)

Note: This is SATELLITE DEBRIS
Your satellite tracking list
Your tracking list is empty




NASA's NSSDC Master Catalog

Two Line Element Set (TLE):
1 44007U 14055BN  24321.53658472 -.00000088  00000-0  00000-0 0  9999
2 44007  19.9393 230.7259 4816558  14.6630 355.4839  1.76261827 39454
Source of the keplerian elements: AFSPC